Torna al catalogo

COSMOS 375 DEB

AttivoLEO
NORAD 4728·DEBRIS·🇷🇺 Russia

Lanciato Oct 30, 1970 da Baikonur Cosmodrome

Loading…

Prossimi Passaggi (prossime 24 ore)

TLE

AggiornatoSource: Space-Track

Epoca: Sep 14, 2026, 06:55 UTC

1 04728U 70091Z   26257.28842579  .00000680  00000-0  28022-3 0  9996
2 04728  62.9061 351.3724 0633920 294.8848  58.7571 13.59282353689106

Traccia COSMOS 375 DEB in tempo reale con AllMySat

Download on the App Store